DMSP 5D-2 F13 DEB, 42286

Orbit data source: Space-Track

DMSP 5D-2 F13 DEB, 42286 is space debris in SSO originally from a launch on Fri, 24 Mar 1995 UTC launched from the Air Force Western Test Range (AFWTR). Debris objects in space refer to the collection of defunct objects orbiting the Earth. Examples of debris include non-operational satellites, rocket bodies, and fragments generated from explosions, collisions, or faulty payload assembly.

Loading next visibility...
Identifier
42286, 1995-015HC
Orbit
SSO
Country
Flag of USUS
Related business
Manufacturer
Unknown
Mission
Spacecraft
Bus & Motor
Unknown
Mass
Unknown
Launch date (UTC)
1995-03-24 (31 years ago)
Launch vehicle
Unknown
Launch site
Air Force Western Test Range (AFWTR)
Object type
Payload
Rocket body
Debris
Shape & HBR
Unknown shape, 0.1 m
Radar Cross Section
Small (<0.1 m²)

Expand to show TLE details & history
Last TLE update: 2 weeks ago

TLE from 2 weeks ago
0 DMSP 5D-2 F13 DEB
1 42286U 95015HC  26209.18168107  .00004041  00000-0  17045-2 0  9991
2 42286  98.9202 188.1313 0050304 318.9617  40.7782 14.25541534576624
Epoch: 2026-07-28T04:21Z
TLE epoch observation values (Epoch: 2026-07-28T04:21:37.244Z)
Latitude
0.00001°
Longitude
176.87153°
Altitude
782.292 km
Speed
7.477 km/s
True Right ascension
12h 32m 31s
True Declination
0° 00' 00"
Sunlit
Object was in daylight at epoch
Visualization orbit readout
Latitude
Unknown
Longitude
Unknown
Altitude
Unknown
Speed
Unknown
Apparent Right ascension
Unknown
Apparent Declination
Unknown
Sunlit
N/A
Visualization observer readout
Local Sidereal Time
15:40:29
Azimuth
Unknown
Elevation
Unknown
Doppler factor
Unknown
Orbital elements
Apogee altitude
839.962 km
Perigee altitude
767.706 km
Semi-major axis
7,181.971 km
Eccentricity
0.00503
Inclination
98.9202°
RAAN
188.1313°
Arg. of periapsis
318.9617°
True anomaly
41.15649°
Mean anomaly
40.7782°
Eccentric anomaly
40.96717°
Mean motion
3.56597 °/min
Orbital period
100.95 mins
BSTAR
0.0017045
Loading maneuver chart data...
Computing Atmospheric mass density...

Documentation

Showing up to 5 results
|